Temperature
22 22 22 21 21 21 20 20 20 20 20 20 19 19 19 19 19 19 19 19 19 19 18 18 18 18 18 18 19 19 19 19 19 19 19 18 18 18 18 18 17 18 18
22 22 22 21 21 21 20 20 20 20 20 19 19 19 19 19 19 19 19 19 19 19 19 19 18 18 19 19 19 19 19 19 18 18 18 18 18 18 18 17 17 18 18
23 22 22 21 21 20 20 20 20 20 19 19 19 19 19 19 19 19 19 19 19 19 19 19 19 19 19 19 19 19 19 18 18 18 18 18 18 18 18 17 18 18 18
22 22 21 21 21 20 20 20 20 20 19 19 19 19 19 19 19 19 19 19 19 18 18 18 19 19 19 19 19 19 19 18 18 18 17 17 18 18 18 18 18 18 18
21 21 22 21 21 20 20 20 20 19 19 19 19 19 19 19 19 19 19 19 19 18 18 18 18 19 19 19 19 19 19 18 18 18 17 18 18 18 18 18 18 18 18
21 21 21 21 20 20 20 20 19 19 19 19 19 19 19 19 19 19 19 19 19 18 18 18 18 18 19 19 19 19 19 18 18 18 18 18 18 18 18 18 18 18 18
21 21 21 21 20 20 20 20 19 19 19 19 19 19 19 19 19 19 19 19 18 18 18 18 18 18 18 19 19 19 19 18 18 18 18 18 18 18 18 18 18 18 18
21 21 22 21 21 20 20 20 19 19 19 19 19 19 19 19 19 19 19 19 18 18 18 18 18 18 18 18 19 19 19 19 18 18 18 18 18 18 18 18 18 18 18
22 21 21 21 21 20 20 20 20 19 19 19 19 19 19 19 19 19 19 19 19 18 18 18 18 18 18 18 19 19 19 19 19 18 18 18 19 19 19 18 18 18 18
22 21 20 20 20 20 20 20 20 19 19 19 19 19 19 19 19 19 18 19 19 19 18 18 18 18 18 18 19 19 19 19 19 18 18 18 19 19 19 19 18 18 18
22 21 21 20 20 20 19 19 19 19 19 19 19 19 18 18 18 18 18 18 18 18 18 18 18 18 18 18 18 19 19 19 19 18 19 18 18 19 19 19 18 18 18
22 21 21 20 20 20 19 19 19 18 18 18 18 18 18 18 18 18 18 18 18 18 18 18 18 18 18 18 18 18 18 19 19 18 19 19 18 19 19 19 19 18 18
22 21 21 20 20 20 19 19 19 18 18 18 18 18 18 18 18 18 18 18 18 18 18 18 18 18 18 18 18 18 18 18 18 18 18 18 18 19 19 19 19 18 18
21 21 20 20 20 19 19 19 19 18 18 18 18 18 18 17 17 17 17 18 18 17 17 17 17 17 17 17 17 17 17 18 18 18 18 18 18 18 18 18 18 18 18
21 20 20 19 19 19 19 19 18 18 18 18 18 18 17 17 17 17 17 17 17 17 17 17 17 17 17 17 17 17 17 17 17 18 18 18 18 18 18 18 18 18 18
20 20 19 19 19 19 19 19 18 18 18 18 17 17 17 17 16 16 16 16 16 16 16 16 16 16 16 16 17 17 17 17 17 17 17 17 17 18 18 18 18 18 18
19 19 19 18 18 18 18 18 18 18 18 17 17 16 16 16 16 16 16 16 16 16 16 16 16 16 16 16 16 16 16 17 17 17 17 17 17 17 18 18 18 18 18
19 19 19 18 18 18 18 18 18 18 17 17 16 16 16 15 15 15 15 15 15 15 15 15 16 16 16 16 16 16 16 16 17 17 17 17 17 17 17 17 18 18 18
18 18 18 18 18 18 18 18 18 18 17 17 16 16 16 15 14 14 14 14 14 14 15 15 15 15 15 15 15 16 16 16 16 16 17 17 17 17 17 17 17 17 17
18 18 18 18 18 18 18 18 17 17 17 16 16 16 15 14 14 14 14 14 14 14 14 14 14 14 14 15 15 15 16 16 16 16 16 17 17 17 17 17 17 17 17
18 18 18 18 18 18 17 17 17 17 17 16 16 16 15 14 14 14 13 14 13 13 13 14 13 14 14 14 15 15 15 16 17 17 17 17 17 17 17 17 17 17 17
19 18 18 18 18 18 17 17 17 17 16 16 16 15 15 14 13 13 13 13 13 13 13 13 13 13 13 14 14 14 15 16 17 17 17 17 17 17 17 16 16 16 17
19 19 19 18 18 17 17 17 16 16 16 16 16 15 15 14 13 13 13 12 12 13 13 13 13 13 13 13 14 14 14 15 15 16 16 16 16 16 16 16 16 16 16
20 19 19 18 18 17 17 16 16 16 16 16 15 15 14 14 13 13 12 12 12 12 12 12 13 13 13 13 13 14 14 14 14 14 16 16 16 16 16 16 16 16 16
20 20 19 18 18 17 17 16 16 16 15 15 15 14 14 14 13 13 13 12 12 12 12 12 12 12 12 12 12 13 13 13 14 14 14 15 15 16 16 16 16 16 16
21 20 19 18 18 17 16 16 15 15 15 15 14 14 14 14 14 14 13 12 12 12 12 12 12 12 12 12 12 12 12 13 13 14 14 14 15 15 15 15 15 15 15
Wind_Speed
18 17 18 15 13 12 11 11 12 11 11 11 11 11 12 12 12 11 11 10 10 9 9 9 9 9 9 9 9 9 9 8 9 9 11 12 12 11 10 11 13 15 16
20 19 18 16 14 13 12 11 12 11 11 11 11 11 11 11 10 10 9 8 8 8 8 8 8 8 8 8 8 7 7 6 6 7 9 11 11 10 8 7 13 14 16
20 19 18 16 15 13 13 12 12 12 12 12 12 11 11 10 10 9 8 7 7 7 7 7 7 7 7 7 7 6 5 4 3 4 5 9 11 10 10 14 17 16 15
20 18 18 17 15 14 13 13 13 12 12 12 12 11 10 9 9 8 7 6 5 5 5 5 5 5 5 5 5 4 3 2 1 1 4 6 11 12 12 14 15 14 14
20 20 19 17 15 14 13 13 12 12 12 11 11 10 9 8 7 6 5 5 4 4 4 4 4 4 4 4 3 2 1 2 4 6 2 11 14 13 13 13 13 13 13
20 20 18 17 15 13 12 12 11 11 10 10 9 8 7 6 5 4 3 3 3 2 2 2 2 3 2 2 2 0 2 4 7 6 4 14 14 13 12 12 12 12 12
20 19 18 16 14 13 11 11 10 9 9 8 7 6 5 4 3 3 2 1 1 1 1 1 1 1 1 1 1 2 4 7 9 7 5 14 15 15 12 11 11 12 11
21 19 18 16 14 12 11 9 9 8 7 7 6 5 4 3 2 2 2 2 2 2 1 1 2 2 3 3 3 4 5 9 8 6 5 15 18 16 13 11 11 11 12
20 18 16 16 14 12 11 10 9 7 6 5 4 3 2 2 2 3 3 3 3 3 3 3 3 4 4 5 6 6 7 9 11 10 4 15 19 17 14 12 11 11 11
15 15 14 15 14 13 12 11 10 8 7 5 4 3 2 4 5 6 5 5 4 4 4 4 5 6 6 7 8 9 9 9 12 11 5 15 22 19 16 14 13 12 12
12 10 11 12 11 11 14 12 11 9 7 6 5 4 4 4 2 3 3 3 3 4 5 5 6 7 8 10 12 12 10 10 12 9 5 17 21 20 18 16 14 13 13
10 9 9 8 6 6 9 10 7 7 7 5 4 2 1 3 4 2 2 2 4 5 5 6 7 8 9 10 12 14 10 12 12 8 7 22 21 20 19 17 16 15 15
10 8 9 8 8 7 6 6 5 5 5 5 7 5 4 4 4 4 3 2 4 5 4 4 5 6 6 6 5 8 11 11 9 8 9 21 21 19 19 18 18 17 17
11 9 9 9 8 8 7 4 5 5 4 5 6 6 5 3 3 3 2 3 3 3 2 3 3 5 5 7 7 7 10 10 9 7 8 18 20 19 19 19 19 19 18
11 10 10 10 9 7 5 3 5 4 3 5 5 6 5 2 2 3 2 3 4 4 2 1 3 3 4 6 8 8 7 9 10 10 8 17 19 20 20 20 20 20 20
10 10 9 9 7 5 4 2 1 3 4 5 6 6 6 5 4 4 3 2 3 3 2 2 3 3 3 3 5 7 8 9 9 11 10 14 19 21 21 21 21 21 21
10 9 8 8 7 5 4 1 2 3 5 4 5 6 7 7 6 5 4 3 3 4 3 3 3 3 4 5 5 6 6 8 8 10 11 10 14 19 22 23 23 23 23
11 8 6 8 8 6 4 2 3 6 6 3 4 7 9 7 6 6 4 3 5 6 4 3 3 2 3 3 4 5 5 5 7 10 11 12 13 14 19 24 24 24 24
10 8 7 8 7 6 4 2 4 4 2 1 4 7 7 6 6 6 4 3 5 4 3 5 4 4 4 5 5 6 6 5 6 8 8 11 13 14 14 19 25 26 26
10 8 8 7 6 4 3 1 1 1 1 1 4 7 5 4 7 7 5 5 5 4 4 4 5 4 4 5 7 7 5 6 6 7 8 8 10 13 15 15 16 21 26
10 9 7 7 5 2 1 0 1 2 2 2 2 6 3 4 5 5 4 5 4 4 5 5 5 6 5 4 4 5 6 8 8 7 6 5 5 7 10 12 13 13 15
10 8 7 7 6 4 3 1 1 1 3 2 1 3 2 3 4 6 5 5 5 5 5 4 4 4 6 5 4 5 5 6 3 4 3 4 4 2 3 7 9 12 13
11 10 9 8 7 5 2 2 2 1 3 2 2 1 3 3 3 4 4 4 5 6 5 5 5 5 5 6 5 3 3 4 6 4 4 2 2 3 3 3 6 9 12
10 10 7 7 6 4 3 2 3 3 3 3 1 1 2 2 3 2 2 3 4 5 6 6 5 5 6 5 5 4 3 3 3 4 5 4 2 3 4 4 3 6 9
10 8 8 7 6 4 3 2 3 3 4 4 4 3 2 4 4 4 2 1 3 5 5 5 5 5 5 6 5 5 5 4 5 5 6 6 5 4 3 4 3 3 7
8 8 9 9 7 5 4 3 2 2 3 4 5 5 4 3 2 2 1 1 3 4 4 5 5 6 5 5 5 5 6 5 5 4 5 6 5 5 4 2 2 3 4
Wind_Direction
115 118 113 106 101 101 110 124 129 127 124 120 118 115 111 107 104 100 96 92 87 83 79 75 72 69 66 63 62 64 67 69 75 80 84 85 87 91 98 108 108 103 109
115 118 112 108 102 99 102 114 123 125 124 121 119 119 116 113 111 106 102 96 91 86 80 76 73 72 71 70 69 70 71 75 84 96 103 101 95 91 92 106 105 112 114
115 119 115 108 104 99 99 107 116 119 120 120 120 120 119 118 117 113 108 102 96 90 83 78 75 75 76 77 76 75 74 75 83 112 135 120 110 95 91 101 109 115 115
122 126 117 112 107 103 101 105 111 114 115 117 118 118 119 120 120 116 111 106 101 98 93 86 80 80 83 85 83 78 66 43 355 245 203 143 120 106 103 109 115 118 118
115 114 117 116 111 107 104 105 108 111 113 114 115 116 118 120 120 118 116 111 105 99 100 97 91 88 89 93 91 78 9 318 303 269 179 109 107 118 116 118 121 123 122
118 118 119 118 115 113 110 109 110 112 113 115 117 118 120 121 121 120 121 121 113 104 102 106 115 112 106 110 109 38 303 301 294 273 141 124 122 129 127 129 131 131 128
120 120 124 122 120 119 119 118 118 119 120 122 124 126 130 133 135 136 134 139 145 133 137 138 151 154 167 176 200 260 289 295 280 279 129 124 132 137 137 138 140 140 137
120 122 126 127 126 126 127 127 127 128 130 133 134 136 141 144 150 172 189 204 216 213 220 230 219 208 213 222 228 249 274 287 286 287 137 129 141 143 144 147 148 148 148
122 128 137 138 138 140 140 139 138 138 139 136 131 133 154 186 215 230 231 228 233 240 238 234 235 232 226 225 229 238 257 276 289 280 167 140 149 150 151 154 156 157 156
119 129 139 145 149 156 153 151 151 150 147 147 151 166 217 242 240 238 238 226 232 247 250 248 244 239 234 230 230 234 244 263 267 266 185 155 156 156 159 163 166 168 167
114 120 128 137 150 159 155 154 160 160 161 172 180 203 234 268 265 225 228 199 222 246 254 253 249 245 240 236 231 230 233 244 251 253 189 157 161 161 165 170 174 175 176
123 113 103 116 120 118 125 136 144 153 158 174 129 149 267 342 343 2 153 202 233 255 260 254 255 253 243 242 234 225 230 238 255 256 177 160 167 169 170 175 180 182 183
126 114 112 99 75 66 86 103 101 105 111 89 71 48 33 5 353 13 12 301 271 266 271 279 256 263 260 266 266 225 232 247 248 252 179 168 172 175 176 180 186 188 190
116 106 96 87 78 66 63 78 92 86 82 79 76 51 32 3 2 19 3 331 309 298 272 279 267 271 285 283 272 256 248 248 259 249 193 177 179 183 186 187 192 195 195
111 101 88 86 83 79 62 37 79 87 86 98 86 67 26 6 11 358 340 324 314 317 326 328 282 279 275 271 266 258 250 253 260 262 227 189 192 194 193 195 199 202 203
104 100 98 99 99 101 100 70 85 102 102 89 85 69 31 26 23 352 314 323 310 310 346 295 278 270 266 258 261 266 262 257 255 264 254 207 203 204 202 201 204 207 209
111 110 115 121 115 111 108 117 92 82 77 76 92 88 52 31 13 346 311 314 350 332 309 282 282 268 258 258 255 262 261 256 250 251 257 242 219 213 211 210 209 209 211
116 121 132 120 116 110 91 40 63 54 55 54 68 81 59 21 10 338 325 350 355 325 309 293 271 293 310 314 301 282 269 253 248 242 241 242 236 227 220 218 215 213 213
121 122 110 107 121 119 116 75 86 91 73 31 68 76 54 4 3 352 332 344 336 320 319 324 6 0 330 320 294 265 257 253 250 250 235 231 229 229 226 221 218 217 218
129 129 124 124 117 129 125 107 111 100 136 55 84 90 57 3 19 3 311 7 351 323 338 352 337 312 287 275 283 297 288 265 250 246 244 235 224 224 227 226 219 222 223
140 142 147 141 135 160 129 1 12 27 359 356 95 103 67 25 13 316 325 349 321 331 345 326 329 315 301 278 285 291 280 262 241 230 231 239 234 229 231 221 217 219 223
153 155 156 160 164 185 148 141 209 293 290 277 49 118 101 46 358 330 25 334 346 338 306 308 309 305 309 320 320 311 306 296 325 264 224 217 230 236 244 236 221 222 226
167 172 179 173 166 182 184 240 286 261 270 298 20 67 73 28 341 334 333 336 340 320 329 339 319 318 313 316 308 301 311 335 338 319 321 272 218 234 240 242 231 230 231
176 177 173 163 164 168 195 263 298 299 309 328 345 44 49 310 273 289 311 327 331 315 315 317 3 338 319 310 311 305 283 310 306 319 320 316 276 244 235 249 253 236 234
179 171 166 157 156 168 202 239 270 311 337 356 2 343 324 275 237 225 211 280 316 296 314 332 325 318 312 309 316 319 309 288 251 260 292 309 308 286 244 223 226 230 238
178 170 162 151 157 169 196 234 252 304 327 326 318 304 295 291 257 185 177 96 304 304 327 320 310 299 294 302 305 304 305 300 296 289 287 295 297 300 295 262 226 226 232
Height
1520 1523 1526 1529 1531 1534 1536 1538 1540 1542 1544 1545 1546 1547 1548 1549 1550 1551 1551 1552 1552 1553 1554 1555 1555 1556 1556 1556 1557 1557 1558 1558 1558 1559 1559 1560 1560 1561 1562 1563 1564 1565 1566
1520 1524 1527 1530 1532 1535 1537 1539 1541 1543 1545 1546 1547 1549 1549 1550 1551 1552 1553 1553 1554 1554 1555 1556 1556 1557 1557 1558 1558 1558 1559 1560 1560 1560 1561 1562 1562 1563 1564 1565 1566 1567 1569
1521 1524 1528 1531 1533 1536 1538 1541 1543 1544 1546 1547 1549 1550 1551 1551 1552 1553 1554 1554 1555 1556 1556 1557 1558 1558 1558 1559 1559 1560 1561 1561 1562 1563 1563 1564 1565 1565 1566 1567 1568 1570 1571
1522 1526 1529 1532 1535 1537 1540 1542 1544 1545 1547 1548 1550 1551 1551 1552 1553 1554 1554 1555 1556 1557 1557 1558 1559 1559 1560 1560 1561 1561 1562 1563 1564 1565 1565 1567 1567 1568 1568 1569 1570 1572 1573
1525 1527 1531 1533 1536 1538 1541 1543 1545 1546 1548 1549 1550 1551 1552 1553 1554 1555 1555 1556 1557 1558 1558 1559 1559 1560 1561 1561 1562 1563 1564 1565 1566 1566 1568 1569 1569 1569 1570 1571 1572 1574 1575
1526 1529 1532 1535 1537 1540 1542 1544 1546 1547 1549 1550 1551 1552 1553 1554 1554 1555 1556 1556 1557 1558 1559 1559 1560 1561 1561 1562 1563 1564 1565 1566 1566 1567 1569 1569 1570 1570 1571 1572 1573 1575 1576
1528 1530 1533 1536 1539 1541 1543 1545 1546 1548 1549 1551 1552 1552 1553 1554 1555 1555 1556 1557 1557 1558 1559 1560 1560 1561 1562 1562 1563 1564 1565 1566 1567 1568 1570 1570 1570 1571 1572 1573 1574 1576 1578
1528 1531 1535 1537 1540 1542 1544 1546 1547 1549 1550 1551 1552 1553 1553 1554 1555 1555 1556 1557 1557 1558 1559 1559 1560 1561 1562 1562 1563 1564 1565 1566 1567 1569 1570 1569 1570 1571 1572 1574 1575 1577 1578
1530 1532 1535 1538 1541 1543 1545 1546 1548 1549 1550 1551 1552 1553 1554 1554 1555 1555 1556 1556 1557 1557 1558 1559 1559 1560 1561 1562 1563 1564 1565 1566 1567 1568 1569 1569 1570 1571 1573 1574 1575 1577 1579
1532 1535 1537 1540 1542 1543 1545 1547 1548 1549 1551 1551 1552 1553 1554 1554 1554 1554 1555 1555 1555 1556 1557 1557 1558 1559 1560 1561 1562 1563 1564 1565 1566 1567 1568 1568 1569 1571 1572 1574 1575 1577 1579
1534 1537 1539 1541 1543 1545 1546 1547 1548 1549 1550 1551 1552 1552 1553 1554 1554 1553 1553 1554 1554 1555 1555 1556 1556 1557 1558 1559 1560 1561 1562 1563 1565 1566 1567 1567 1568 1569 1571 1573 1574 1576 1578
1535 1538 1541 1543 1545 1547 1548 1548 1549 1550 1550 1551 1551 1552 1553 1553 1554 1553 1552 1553 1553 1554 1554 1554 1555 1555 1556 1557 1558 1559 1560 1561 1562 1564 1564 1565 1566 1568 1570 1572 1573 1575 1577
1536 1539 1541 1543 1545 1546 1547 1548 1549 1550 1551 1552 1551 1551 1552 1552 1552 1552 1551 1551 1551 1552 1552 1552 1552 1553 1554 1554 1555 1556 1557 1558 1560 1560 1561 1562 1564 1566 1568 1570 1572 1574 1576
1536 1539 1541 1542 1544 1545 1547 1549 1550 1550 1551 1551 1550 1551 1551 1551 1551 1550 1549 1549 1549 1549 1550 1550 1550 1551 1551 1552 1553 1553 1553 1555 1557 1557 1558 1558 1561 1563 1565 1567 1570 1572 1574
1536 1539 1540 1542 1543 1545 1547 1548 1549 1550 1551 1551 1550 1550 1550 1550 1549 1549 1548 1548 1548 1547 1548 1548 1548 1548 1549 1549 1550 1550 1551 1552 1553 1554 1555 1556 1558 1560 1562 1564 1567 1569 1571
1535 1538 1539 1541 1543 1545 1547 1548 1549 1550 1550 1550 1550 1549 1549 1549 1547 1547 1547 1546 1546 1546 1545 1545 1546 1546 1546 1546 1547 1547 1547 1548 1549 1550 1552 1553 1554 1556 1558 1560 1562 1565 1567
1535 1537 1539 1541 1543 1545 1546 1548 1550 1551 1550 1550 1549 1549 1547 1547 1546 1545 1545 1544 1544 1544 1543 1544 1544 1544 1544 1544 1544 1544 1544 1545 1545 1546 1548 1549 1550 1551 1553 1555 1558 1560 1563
1534 1537 1540 1542 1543 1545 1546 1548 1549 1550 1550 1550 1549 1548 1546 1546 1545 1544 1543 1543 1542 1542 1542 1542 1542 1542 1541 1541 1541 1542 1542 1541 1541 1542 1543 1544 1546 1547 1548 1550 1552 1555 1557
1534 1537 1540 1541 1543 1545 1547 1548 1549 1549 1549 1549 1549 1547 1545 1545 1544 1543 1542 1541 1541 1540 1541 1540 1540 1539 1539 1538 1538 1539 1538 1538 1538 1539 1539 1539 1541 1542 1544 1545 1547 1549 1552
1534 1537 1540 1541 1543 1545 1547 1548 1548 1549 1549 1548 1547 1545 1544 1543 1542 1541 1541 1540 1539 1539 1539 1538 1537 1537 1537 1537 1537 1536 1535 1534 1534 1534 1535 1536 1537 1538 1539 1540 1542 1543 1546
1534 1537 1539 1542 1543 1545 1546 1547 1547 1548 1547 1547 1546 1544 1543 1542 1541 1540 1539 1538 1538 1538 1537 1536 1536 1535 1535 1535 1535 1534 1533 1531 1530 1530 1531 1533 1534 1534 1535 1536 1537 1539 1540
1534 1536 1538 1540 1542 1543 1544 1545 1545 1545 1546 1546 1545 1543 1542 1540 1539 1540 1538 1537 1536 1535 1535 1534 1534 1533 1533 1533 1533 1532 1531 1529 1527 1528 1528 1529 1530 1531 1531 1532 1532 1534 1535
1533 1535 1538 1539 1541 1542 1543 1543 1544 1544 1544 1544 1543 1542 1540 1539 1538 1537 1536 1535 1534 1534 1533 1533 1532 1531 1531 1531 1531 1532 1531 1528 1527 1526 1527 1527 1528 1528 1528 1528 1529 1529 1530
1532 1534 1536 1537 1539 1540 1541 1541 1542 1542 1542 1542 1541 1540 1538 1537 1537 1536 1534 1533 1532 1532 1531 1531 1531 1529 1529 1529 1529 1530 1530 1529 1529 1526 1525 1525 1526 1525 1525 1525 1525 1525 1526
1531 1533 1534 1536 1537 1538 1538 1539 1539 1539 1539 1539 1538 1537 1536 1536 1535 1534 1533 1532 1531 1530 1530 1529 1528 1527 1527 1527 1527 1527 1527 1527 1527 1527 1525 1524 1523 1523 1523 1522 1522 1522 1522
1530 1531 1532 1534 1535 1536 1536 1537 1537 1536 1536 1535 1535 1535 1535 1535 1534 1533 1532 1530 1529 1528 1527 1526 1525 1525 1524 1524 1524 1524 1524 1524 1524 1524 1523 1522 1521 1520 1520 1519 1519 1518 1518